• In Belarus
  • List of Countries
  • For 7 days
  • Water Temperature
  • Satellite Maps
  • Weather Map
  • Weather Widgets
  • user-avatar
    Login

    Hourly Weather Solden

    Today, 19 December, Wednesday

    Time Temperature Precipitation Wind Pressure Humidity
    00:00 -12°C° 0 mm 2 mps 580 mmHg 48%
    01:00 -10°C° 0 mm 2 mps 580 mmHg 48%
    02:00 -10°C° 0 mm 2 mps 580 mmHg 48%
    03:00 -10°C° 0 mm 2 mps 580 mmHg 49%
    04:00 -10°C° 0 mm 2 mps 580 mmHg 49%
    05:00 -10°C° 0 mm 2 mps 580 mmHg 50%
    06:00 -9°C° 0 mm 2 mps 580 mmHg 51%
    07:00 -8°C° 0 mm 1 mps 580 mmHg 52%
    08:00 -7°C° 0 mm 1 mps 580 mmHg 54%
    09:00 -6°C° 0 mm 1 mps 581 mmHg 55%
    10:00 -6°C° 0 mm 1 mps 581 mmHg 56%
    11:00 -4°C° 0 mm 1 mps 581 mmHg 58%
    12:00 -5°C° 0 mm 2 mps 581 mmHg 60%
    13:00 -5°C° 0 mm 2 mps 581 mmHg 61%
    14:00 -6°C° 0 mm 2 mps 580 mmHg 66%
    15:00 -6°C° 0 mm 2 mps 580 mmHg 71%
    16:00 -7°C° 0 mm 2 mps 579 mmHg 75%
    17:00 -8°C° 0.1 mm 2 mps 579 mmHg 77%
    18:00 -9°C° 0.1 mm 2 mps 578 mmHg 79%
    19:00 -9°C° 0.1 mm 2 mps 578 mmHg 81%
    20:00 -8°C° 0.2 mm 1 mps 578 mmHg 83%
    21:00 -8°C° 0.2 mm 1 mps 578 mmHg 85%
    22:00 -8°C° 0.2 mm 1 mps 578 mmHg 87%
    23:00 -8°C° 0.7 mm 1 mps 579 mmHg 89%

    Tomorrow, 20 December, Thursday

    Time Temperature Precipitation Wind Pressure Humidity
    00:00 -7°C° 0.7 mm 1 mps 579 mmHg 91%
    01:00 -7°C° 0.7 mm 1 mps 579 mmHg 92%
    02:00 -7°C° 0.5 mm 1 mps 579 mmHg 92%
    03:00 -7°C° 0.5 mm 1 mps 579 mmHg 92%
    04:00 -7°C° 0.5 mm 0 mps 579 mmHg 91%
    05:00 -7°C° 0.2 mm 0 mps 579 mmHg 91%
    06:00 -8°C° 0.2 mm 1 mps 579 mmHg 91%
    07:00 -8°C° 0.2 mm 1 mps 579 mmHg 90%
    08:00 -7°C° 0.1 mm 1 mps 579 mmHg 88%
    09:00 -7°C° 0.1 mm 1 mps 580 mmHg 86%
    10:00 -6°C° 0.1 mm 1 mps 580 mmHg 84%
    11:00 -4°C° 0.1 mm 1 mps 581 mmHg 81%
    12:00 -3°C° 0.1 mm 1 mps 581 mmHg 79%
    13:00 -2°C° 0.1 mm 1 mps 581 mmHg 76%
    14:00 -3°C° 0.1 mm 1 mps 581 mmHg 79%
    15:00 -4°C° 0.1 mm 1 mps 581 mmHg 83%
    16:00 -6°C° 0.1 mm 1 mps 580 mmHg 86%
    17:00 -7°C° 0 mm 1 mps 580 mmHg 87%
    18:00 -8°C° 0 mm 1 mps 580 mmHg 87%
    19:00 -9°C° 0 mm 1 mps 580 mmHg 88%
    20:00 -9°C° 0 mm 1 mps 580 mmHg 86%
    21:00 -10°C° 0 mm 1 mps 580 mmHg 85%
    22:00 -10°C° 0 mm 1 mps 580 mmHg 83%
    23:00 -10°C° 0 mm 1 mps 580 mmHg 81%

    Day after tomorrow, 21 December, Friday

    Time Temperature Precipitation Wind Pressure Humidity
    00:00 -12°C° 0 mm 2 mps 580 mmHg 80%
    01:00 -12°C° 0 mm 2 mps 580 mmHg 78%
    02:00 -12°C° 0 mm 2 mps 580 mmHg 77%
    03:00 -12°C° 0 mm 2 mps 580 mmHg 77%
    04:00 -12°C° 0 mm 2 mps 580 mmHg 76%
    05:00 -10°C° 0 mm 2 mps 580 mmHg 74%
    06:00 -10°C° 0 mm 2 mps 580 mmHg 73%
    07:00 -10°C° 0 mm 2 mps 580 mmHg 72%
    08:00 -9°C° 0 mm 2 mps 581 mmHg 72%
    09:00 -8°C° 0 mm 2 mps 581 mmHg 72%
    10:00 -6°C° 0 mm 2 mps 582 mmHg 71%
    11:00 -6°C° 0 mm 2 mps 582 mmHg 72%
    12:00 -6°C° 0 mm 3 mps 582 mmHg 72%
    13:00 -5°C° 0 mm 3 mps 582 mmHg 72%
    14:00 -4°C° 0 mm 2 mps 582 mmHg 75%
    15:00 -5°C° 0 mm 2 mps 582 mmHg 78%
    16:00 -5°C° 0 mm 2 mps 581 mmHg 81%
    17:00 -5°C° 0 mm 2 mps 581 mmHg 79%
    18:00 -6°C° 0 mm 2 mps 581 mmHg 78%
    19:00 -6°C° 0 mm 2 mps 581 mmHg 76%
    20:00 -6°C° 0 mm 2 mps 581 mmHg 75%
    21:00 -6°C° 0 mm 2 mps 581 mmHg 74%
    22:00 -6°C° 0 mm 2 mps 581 mmHg 74%
    23:00 -6°C° 0 mm 2 mps 581 mmHg 75%

    22 December, Saturday

    Time Temperature Precipitation Wind Pressure Humidity
    00:00 -5°C° 0 mm 2 mps 581 mmHg 76%
    01:00 -5°C° 0 mm 2 mps 581 mmHg 77%
    02:00 -5°C° 0 mm 2 mps 581 mmHg 77%
    03:00 -5°C° 0 mm 2 mps 580 mmHg 77%
    04:00 -6°C° 0 mm 2 mps 580 mmHg 77%
    05:00 -6°C° 0 mm 2 mps 580 mmHg 77%
    06:00 -5°C° 0 mm 2 mps 580 mmHg 78%
    07:00 -5°C° 0 mm 2 mps 580 mmHg 79%
    08:00 -4°C° 0 mm 2 mps 580 mmHg 78%
    09:00 -4°C° 0 mm 2 mps 581 mmHg 78%
    10:00 -3°C° 0 mm 2 mps 581 mmHg 78%
    11:00 -2°C° 0 mm 2 mps 582 mmHg 80%
    12:00 -1°C° 0 mm 2 mps 582 mmHg 82%
    13:00 +1°C° 0 mm 2 mps 582 mmHg 83%
    14:00 -1°C° 0 mm 2 mps 582 mmHg 84%
    15:00 -2°C° 0 mm 2 mps 581 mmHg 86%
    16:00 -3°C° 0 mm 2 mps 581 mmHg 87%
    17:00 -4°C° 0 mm 2 mps 581 mmHg 86%
    18:00 -5°C° 0 mm 2 mps 581 mmHg 85%
    19:00 -6°C° 0 mm 2 mps 581 mmHg 84%
    20:00 -6°C° 0 mm 2 mps 581 mmHg 83%
    21:00 -6°C° 0 mm 2 mps 581 mmHg 82%
    22:00 -6°C° 0 mm 2 mps 581 mmHg 81%
    23:00 -7°C° 0 mm 2 mps 581 mmHg 81%

    23 December, Sunday

    Time Temperature Precipitation Wind Pressure Humidity
    00:00 -7°C° 0 mm 2 mps 581 mmHg 80%
    01:00 -7°C° 0 mm 2 mps 581 mmHg 80%
    02:00 -7°C° 0 mm 2 mps 581 mmHg 79%
    03:00 -7°C° 0 mm 2 mps 581 mmHg 78%
    04:00 -7°C° 0 mm 2 mps 581 mmHg 77%
    05:00 -7°C° 0 mm 2 mps 581 mmHg 77%
    06:00 -7°C° 0 mm 2 mps 582 mmHg 77%
    07:00 -7°C° 0 mm 2 mps 582 mmHg 76%
    08:00 -6°C° 0 mm 2 mps 582 mmHg 76%
    09:00 -5°C° 0 mm 2 mps 583 mmHg 75%
    10:00 -4°C° 0 mm 2 mps 584 mmHg 75%
    11:00 -3°C° 0.1 mm 2 mps 584 mmHg 76%
    12:00 -2°C° 0.1 mm 2 mps 585 mmHg 77%
    13:00 -1°C° 0.1 mm 2 mps 585 mmHg 78%
    14:00 -2°C° 0.1 mm 2 mps 585 mmHg 80%
    15:00 -3°C° 0.1 mm 2 mps 584 mmHg 82%
    16:00 -3°C° 0.1 mm 2 mps 584 mmHg 84%
    17:00 -4°C° 0 mm 2 mps 584 mmHg 84%
    18:00 -5°C° 0 mm 2 mps 584 mmHg 84%
    19:00 -6°C° 0 mm 2 mps 583 mmHg 85%
    20:00 -6°C° 0 mm 2 mps 583 mmHg 84%
    21:00 -6°C° 0 mm 2 mps 584 mmHg 84%
    22:00 -6°C° 0 mm 2 mps 584 mmHg 83%
    23:00 -5°C° 0.1 mm 2 mps 584 mmHg 83%

    24 December, Monday

    Time Temperature Precipitation Wind Pressure Humidity
    00:00 -5°C° 0.1 mm 2 mps 584 mmHg 82%
    01:00 -5°C° 0.1 mm 2 mps 584 mmHg 82%
    02:00 -5°C° 0.2 mm 2 mps 583 mmHg 82%
    03:00 -5°C° 0.2 mm 2 mps 583 mmHg 82%
    04:00 -5°C° 0.2 mm 2 mps 583 mmHg 82%
    05:00 -4°C° 0.5 mm 2 mps 583 mmHg 82%
    06:00 -4°C° 0.5 mm 2 mps 584 mmHg 83%
    07:00 -4°C° 0.5 mm 2 mps 584 mmHg 84%
    08:00 -3°C° 0.5 mm 2 mps 584 mmHg 84%
    09:00 -3°C° 0.5 mm 2 mps 585 mmHg 84%
    10:00 -2°C° 0.5 mm 2 mps 585 mmHg 83%
    11:00 -1°C° 0.3 mm 2 mps 586 mmHg 83%
    12:00 -1°C° 0.3 mm 2 mps 586 mmHg 84%
    13:00 +1°C° 0.3 mm 2 mps 586 mmHg 84%
    14:00 -1°C° 0.1 mm 2 mps 586 mmHg 85%
    15:00 -1°C° 0.1 mm 2 mps 586 mmHg 87%
    16:00 -2°C° 0.1 mm 2 mps 586 mmHg 88%
    17:00 -2°C° 0.1 mm 2 mps 586 mmHg 88%
    18:00 -3°C° 0.1 mm 2 mps 586 mmHg 88%
    19:00 -3°C° 0.1 mm 2 mps 586 mmHg 88%
    20:00 -4°C° 0 mm 2 mps 586 mmHg 88%
    21:00 -4°C° 0 mm 2 mps 585 mmHg 87%
    22:00 -4°C° 0 mm 2 mps 585 mmHg 87%
    23:00 -4°C° 0 mm 2 mps 585 mmHg 86%
    Show more